Location: Apple Hill Campground
(44.2915°N, 71.6726°W)
Time: 09:04:32
(UTC+00:00)

BlueWalker 3 - Pass Details

Date: 05 October 2024
Orbit: 470 x 482 km, 53.2° (Epoch: 03 November)

Event Time Altitude Azimuth Distance (km) Brightness Sun altitude
Exits shadow 08:07:26 11° 121° (ESE) 1,582 4.8 -29.3°
Drops below altitude 10° 08:08:02 10° 111° (ESE) 1,627 5.0 -29.2°
Sets 08:11:42 0° 74° (ENE) 2,511 6.7 -28.6°
